Weather History for Madison, WI

Change the Weather History Date:

Friday, June 21, 2013

  Actual Average Record
Temperature  
Mean Temperature 73 °F 69 °F  
Max Temperature 79 °F 80 °F 100 °F (1988)
Min Temperature 66 °F 58 °F 36 °F (1992)
Degree Days  
Heating Degree Days 0 1  
Month to date heating degree days 52 54  
Since 1 June heating degree days 52 54  
Since 1 July heating degree days 7237 7327  
Cooling Degree Days 8 5  
Month to date cooling degree days 66 68  
Year to date cooling degree days 119 98  
Since 1 June cooling degree days 66 68  
Growing Degree Days 22 (Base 50)    
Moisture  
Dew Point 64 °F    
Average Humidity 78    
Maximum Humidity 93    
Minimum Humidity 62    
Precipitation  
Precipitation 0.86 in 0.16 in 3.46 in (1954)
Month to date precipitation 4.18 3.19  
Year to date precipitation 24.27 15.02  
Snow  
Snow 0.00 in 0.00 in 0.00 in ()
Month to date snowfall 0.0 0.0  
Since 1 June snowfall 0.0 0.0  
Since 1 July snowfall 70.6 50.9  
Snow Depth 0.00 in    
Sea Level Pressure  
Sea Level Pressure 30.02 in    
Wind  
Wind Speed 7 mph (South)    
Max Wind Speed 30 mph    
Max Gust Speed 40 mph    
Visibility 9 miles    
Events Rain , Thunderstorm    
T = Trace of Precipitation, MM = Missing Value Source: NWS Daily Summary

Daily Weather History Graph

Daily Weather History Graph

Search for Another Location

Airport:

Trip Planner

Search our weather history database for the weather conditions in past years. The results will help you decide how hot, cold, wet, or windy it might be!

Date:

Astronomy

Jun. 21, 2013 Rise Set
Actual Time 5:17 AM CDT 8:40 PM CDT
Civil Twilight 4:42 AM CDT 9:16 PM CDT
Nautical Twilight 3:56 AM CDT 10:02 PM CDT
Astronomical Twilight 2:58 AM CDT 11:00 PM CDT
Moon 6:49 PM CDT (6/21) 3:35 AM CDT (6/21)
Length of Visible Light 16h 33m
Length of Day
15h 22m
Waxing Gibbous, 95% of the Moon is Illuminated
Jun 21
Waxing Gibbous
Jun 23
Full
Jun 29
Last Quarter
Jul 8
New
Jul 15
First Quarter

Hourly Weather History & Observations

Time (CDT) Temp. Dew Point Humidity Pressure Visibility Wind Dir Wind Speed Gust Speed Precip Events Conditions
12:53 AM 73.0 °F 60.1 °F 64% 30.06 in 10.0 mi SSE 9.2 mph - N/A   Clear
1:53 AM 72.0 °F 60.1 °F 66% 30.04 in 10.0 mi South 8.1 mph - N/A   Clear
2:53 AM 71.1 °F 60.1 °F 68% 30.03 in 10.0 mi South 8.1 mph - N/A   Clear
3:53 AM 72.0 °F 60.1 °F 66% 30.01 in 10.0 mi South 6.9 mph - N/A   Clear
4:30 AM 71.6 °F 60.8 °F 69% 30.05 in 10.0 mi South 3.5 mph - N/A Thunderstorm Overcast
4:53 AM 72.0 °F 63.0 °F 73% 30.04 in 4.0 mi South 4.6 mph - 0.03 in Rain , Thunderstorm Thunderstorms and Rain
5:31 AM 69.8 °F 64.4 °F 83% 30.03 in 10.0 mi South 8.1 mph - 0.00 in   Partly Cloudy
5:53 AM 70.0 °F 63.0 °F 78% 29.99 in 10.0 mi SE 11.5 mph - 0.00 in   Mostly Cloudy
6:53 AM 71.1 °F 63.0 °F 75% 29.98 in 10.0 mi South 10.4 mph - N/A   Mostly Cloudy
7:53 AM 73.0 °F 64.0 °F 73% 29.97 in 10.0 mi South 10.4 mph - 0.00 in   Overcast
8:18 AM 73.4 °F 64.4 °F 73% 29.99 in 10.0 mi South 13.8 mph - N/A Thunderstorm Thunderstorm
8:53 AM 73.0 °F 64.9 °F 76% 29.99 in 10.0 mi South 11.5 mph - 0.00 in Rain , Thunderstorm Light Thunderstorms and Rain
9:15 AM 69.8 °F 64.4 °F 83% 30.08 in 1.0 mi NW 18.4 mph 32.2 mph 0.01 in Rain , Thunderstorm Thunderstorms and Rain
9:19 AM 66.2 °F 64.4 °F 94% 30.09 in 0.8 mi NNW 19.6 mph 32.2 mph 0.11 in Rain , Thunderstorm Heavy Thunderstorms and Rain
9:23 AM 66.2 °F 64.4 °F 94% 30.08 in 1.0 mi NNW 19.6 mph 33.4 mph 0.33 in Rain , Thunderstorm Heavy Thunderstorms and Rain
9:35 AM 66.2 °F 64.4 °F 94% 30.09 in 3.0 mi North 15.0 mph 24.2 mph 0.52 in Rain , Thunderstorm Thunderstorms and Rain
9:40 AM 66.2 °F 64.4 °F 94% 30.09 in 3.0 mi North 12.7 mph 23.0 mph 0.53 in Rain , Thunderstorm Light Thunderstorms and Rain
9:53 AM 66.0 °F 64.0 °F 93% 30.08 in 7.0 mi NNE 10.4 mph - 0.54 in Rain , Thunderstorm Light Thunderstorms and Rain
10:28 AM 66.2 °F 64.4 °F 94% 30.09 in 9.0 mi Calm Calm - 0.06 in Rain Light Rain
10:43 AM 66.2 °F 64.4 °F 94% 30.08 in 9.0 mi East 8.1 mph - 0.08 in Rain , Thunderstorm Light Thunderstorms and Rain
10:53 AM 66.0 °F 64.0 °F 93% 30.06 in 10.0 mi East 6.9 mph - 0.09 in Rain , Thunderstorm Light Thunderstorms and Rain
11:01 AM 66.2 °F 64.4 °F 94% 30.08 in 10.0 mi Calm Calm - 0.01 in Rain Light Rain
11:53 AM 66.9 °F 64.9 °F 93% 30.04 in 8.0 mi South 5.8 mph - 0.09 in Rain Light Rain
12:14 PM 66.2 °F 64.4 °F 94% 30.02 in 10.0 mi South 15.0 mph - 0.02 in Rain , Thunderstorm Light Thunderstorms and Rain
12:33 PM 66.2 °F 64.4 °F 94% 29.97 in 10.0 mi South 23.0 mph 31.1 mph 0.02 in Rain Light Rain
12:53 PM 68.0 °F 64.9 °F 90% 29.89 in 10.0 mi South 27.6 mph 39.1 mph 0.04 in Rain Light Rain
1:53 PM 71.1 °F 64.0 °F 78% 29.92 in 10.0 mi SSW 9.2 mph 25.3 mph 0.00 in   Partly Cloudy
2:53 PM 73.9 °F 64.0 °F 71% 29.94 in 10.0 mi NNW 3.5 mph - N/A   Clear
3:53 PM 78.1 °F 64.9 °F 64% 29.94 in 10.0 mi Calm Calm - N/A   Partly Cloudy
4:53 PM 79.0 °F 64.0 °F 60% 29.96 in 10.0 mi Calm Calm - N/A   Scattered Clouds
5:53 PM 77.0 °F 64.0 °F 64% 29.98 in 10.0 mi WSW 3.5 mph - N/A   Mostly Cloudy
6:53 PM 75.9 °F 64.0 °F 67% 29.98 in 10.0 mi South 9.2 mph - N/A   Mostly Cloudy
7:53 PM 75.0 °F 64.0 °F 69% 30.00 in 10.0 mi SSW 3.5 mph - N/A   Mostly Cloudy
8:53 PM 73.9 °F 64.9 °F 73% 30.01 in 10.0 mi South 4.6 mph - N/A   Overcast
9:53 PM 72.0 °F 66.0 °F 81% 30.03 in 9.0 mi Calm Calm - 0.00 in Rain Light Rain
10:20 PM 71.6 °F 66.2 °F 83% 30.03 in 10.0 mi Calm Calm - 0.06 in Thunderstorm Thunderstorm
10:45 PM 69.8 °F 68.0 °F 94% 30.02 in 10.0 mi Calm Calm - 0.06 in   Overcast
10:53 PM 69.1 °F 66.9 °F 93% 30.02 in 10.0 mi ENE 5.8 mph - 0.06 in   Overcast
11:05 PM 69.8 °F 66.2 °F 88% 30.04 in 10.0 mi Calm Calm - N/A Thunderstorm Thunderstorm
11:53 PM 70.0 °F 66.9 °F 90% 30.00 in 10.0 mi SE 6.9 mph - 0.00 in Rain , Thunderstorm Light Rain